This demonstration page uses our WeatherBlox Daily Observations layout. Learn more.

Left ArrowRight Arrow

39.95238, -75.16362

Hourly Observations for May 21, 2016

Temp ( °F °C ) Dew Point ( °F °C ) Humidity (%) Winds ( mph kmh ) Pressure ( in mb ) Visibility ( mi km ) Precip ( " mm )
12:54 am 00:54 Cloudy 58 14.4 45 7.2 62 62 Calm 30.19 1022 10 16 0.00 0.00
1:54 am 01:54 Cloudy 58 14.4 45 7.2 62 62 Calm 30.16 1022 10 16 0.00 0.00
2:54 am 02:54 Cloudy 57 13.9 46 7.8 67 67 E 5 7 30.16 1021 10 16 0.00 0.00
3:54 am 03:54 Cloudy 58 14.4 46 7.8 65 65 Calm 30.15 1021 10 16 0.00 0.00
4:54 am 04:54 Cloudy 56 13.3 48 8.9 75 75 E 5 7 30.14 1021 10 16 0.00 0.00
5:54 am 05:54 Cloudy 57 13.9 48 8.9 72 72 E 7 11 30.14 1021 10 16 0.00 0.00
6:54 am 06:54 Cloudy 57 13.9 48 8.9 72 72 E 6 9 30.14 1021 10 16 0.00 0.00
7:54 am 07:54 Cloudy 58 14.4 48 8.9 70 70 ENE 6 9 30.13 1020 10 16 0.00 0.00
8:54 am 08:54 Cloudy 60 15.6 49 9.4 67 67 ENE 5 7 30.13 1020 10 16 0.00 0.00
9:54 am 09:54 Cloudy 60 15.6 49 9.4 67 67 E 8 13 30.12 1020 10 16 0.00 0.00
10:54 am 10:54 Cloudy with Light Rain 59 15 49 9.4 69 69 E 10 17 30.09 1019 10 16 0.01 0.25
11:25 am 11:25 Cloudy with Light Rain 58 14.4 49 9.4 72 72 E 10 17 30.09 1019 7 11 0.01 0.25
11:50 am 11:50 Cloudy with Light Rain 57 14 48 9 72 72 ESE 9 15 30.06 1018 10 16 0.03 0.76
11:54 am 11:54 Cloudy with Light Rain 58 14.4 49 9.4 72 72 ESE 12 19 30.07 1018 10 16 0.03 0.76
12:43 pm 12:43 Cloudy with Light Rain 57 13.9 49 9.4 74 74 E 13 20 30.06 1018 7 11 0.03 0.76
12:48 pm 12:48 Cloudy with Light Rain 57 14 48 9 72 72 E 14 22 30.03 1017 10 16 0.03 0.76
12:54 pm 12:54 Cloudy with Light Rain 58 14.4 50 10 75 75 E 12 19 30.04 1017 10 16 0.03 0.76
1:54 pm 13:54 Cloudy 61 16.1 52 11.1 72 72 E 10 17 30.02 1017 10 16 0.00 0.03
2:54 pm 14:54 Cloudy with Light Rain 61 16.1 52 11.1 72 72 E 13 20 30.00 1016 10 16 0.00 0.03
3:54 pm 15:54 Mostly Cloudy with Light Rain 61 16.1 52 11.1 72 72 ENE 10 17 29.97 1015 10 16 0.00 0.03
4:18 pm 16:18 Cloudy with Light Rain 59 15 53 11.7 81 81 NE 8 13 29.97 1015 8 13 0.01 0.25
4:42 pm 16:42 Cloudy with Light Rain 59 15 54 12 82 82 NE 9 15 29.94 1014 6 10 0.00 0.00
4:54 pm 16:54 Cloudy with Light Rain 58 14.4 53 11.7 84 84 NE 9 15 29.95 1014 6 10 0.07 1.78
5:17 pm 17:17 Cloudy with Light Rain 58 14.4 53 11.7 84 84 NE 10 17 29.94 1014 8 13 0.02 0.51
5:25 pm 17:25 Cloudy with Light Rain 58 14.4 53 11.7 84 84 NE 10 17 29.94 1014 6 10 0.02 0.51
5:32 pm 17:32 Cloudy with Light Rain 58 14.4 52 11.1 81 81 NE 13 20 29.94 1014 4 6 0.03 0.76
5:54 pm 17:54 Cloudy with Light Rain 57 13.9 52 11.1 83 83 NE 13 20 29.93 1014 3 5 0.07 1.78
6:01 pm 18:01 Cloudy with Light Rain 56 13.3 52 11.1 87 87 NNE 8 13 29.94 1014 3 5 0.03 0.76
6:04 pm 18:04 Cloudy with Rain 55 13 52 11 88 88 NNE 12 19 29.94 1014 3 4 0.00 0.00
6:23 pm 18:23 Cloudy with Rain 56 13.3 52 11.1 87 87 NE 14 22 29.91 1013 2 3 0.11 2.79
6:54 pm 18:54 Cloudy with Heavy Rain 55 12.8 52 11.1 90 90 NNE 13 20 29.92 1013 2 3 0.35 8.89
7:16 pm 19:16 Cloudy with Rain 55 12.8 52 11.1 90 90 NNE 12 19 29.91 1013 2 3 0.11 2.79
7:27 pm 19:27 Cloudy with Heavy Rain 55 12.8 51 10.6 87 87 NNE 15 24 29.91 1013 2 3 0.16 4.06
7:44 pm 19:44 Cloudy with Rain 54 12.2 51 10.6 90 90 NNE 17 28 29.91 1013 2 3 0.27 6.86
7:54 pm 19:54 Cloudy with Rain 54 12.2 51 10.6 90 90 NE 17 28 29.91 1013 3 4 0.30 7.62
8:24 pm 20:24 Cloudy with Rain 54 12.2 51 10.6 90 90 NNE 10 17 29.91 1013 3 4 0.16 4.06
8:32 pm 20:32 Cloudy with Rain 54 12.2 51 10.6 90 90 N 13 20 29.91 1013 3 4 0.21 5.33
8:47 pm 20:47 Cloudy with Rain 53 11.7 51 10.6 93 93 N 15 24 29.91 1013 2 3 0.29 7.37
8:54 pm 20:54 Cloudy with Rain 53 11.7 51 10.6 93 93 N 14 22 29.91 1013 3 4 0.33 8.38
9:30 pm 21:30 Cloudy with Rain 54 12.2 51 10.6 90 90 N 13 20 29.91 1013 3 4 0.23 5.84
9:54 pm 21:54 Cloudy with Heavy Rain 54 12.2 51 10.6 90 90 NE 17 28 29.90 1013 2 3 0.37 9.40
10:25 pm 22:25 Cloudy with Heavy Rain 53 11.7 51 10.6 93 93 NE 15 24 29.91 1013 2 3 0.23 5.84
10:32 pm 22:32 Cloudy with Rain 53 11.7 51 10.6 93 93 NE 14 22 29.91 1013 3 5 0.26 6.60
10:40 pm 22:40 Cloudy with Rain 53 11.7 51 10.6 93 93 NNE 15 24 29.88 1012 3 5 0.29 7.37
10:46 pm 22:46 Cloudy with Rain 54 12 52 11 94 94 NE 13 20 29.88 1012 3 5 0.00 0.00
10:54 pm 22:54 Cloudy with Rain 53 11.7 50 10 89 89 NE 12 19 29.88 1012 4 6 0.32 8.13
11:09 pm 23:09 Cloudy with Light Rain 53 11.7 50 10 89 89 NE 13 20 29.88 1012 6 10 0.02 0.51
11:54 pm 23:54 Cloudy with Light Rain 54 12.2 50 10 87 87 NE 16 26 29.86 1011 6 10 0.06 1.52

Powered by AerisWeather